Regional Weather Roundup
Issued by NWS

Home | Current Version | Previous Version | Text Only | Print | Product List | Glossary Off
Versions: 1 2 3 4 5 6 7 8 9 10 11 12 13 14 15 16 17 18 19 20 21 22 23 24 25 26 27 28 29 30 31 32 33 34 35 36 37 38 39 40 41 42 43 44 45 46 47 48 49 50

000
ASUS43 KLSX 310807
RWRMO

WEATHER SUMMARY FOR MISSOURI
NATIONAL WEATHER SERVICE SPRINGFIELD MO
300 AM CDT FRI JUL 31 2015

NOTE: "FAIR" INDICATES FEW OR NO CLOUDS BELOW 12,000 FEET WITH NO
       SIGNIFICANT WEATHER AND/OR OBSTRUCTIONS TO VISIBILITY.
       CURRENT SKY AND/OR WEATHER CONDITIONS ARE NOT AVAILABLE FOR
       CHILLICOTHE AND FARMINGTON.

MOZ001>031-035>038-043-044-053-054-310900-
...NORTHERN AND WESTERN MISSOURI...

CITY           SKY/WX    TMP DP  RH WIND       PRES   REMARKS
KANSAS CTY INT PTCLDY    68  61  78 SW6       30.17S
KANSAS C DTWN  CLEAR     70  66  87 CALM      30.16S
LEE`S SUMMIT   CLEAR     66  62  87 SW3       30.17F
ST JOSEPH      FOG       65  65 100 CALM      30.16S VSB 3/4
CHILLICOTHE      N/A     68  66  93 CALM      30.16F
KIRKSVILLE     PTCLDY    67  63  87 W5        30.16S

$$
MOZ066>068-077>081-088>096-101>105-310900-
...SOUTHWEST MISSOURI...

CITY           SKY/WX    TMP DP  RH WIND       PRES   REMARKS
SPRINGFIELD    PTCLDY    72  63  73 CALM      30.16F
JOPLIN         MOCLDY    73  64  73 E5        30.15S

$$
MOZ032>034-039>042-045>050-055>058-069>072-310900-
...CENTRAL MISSOURI...

CITY           SKY/WX    TMP DP  RH WIND       PRES   REMARKS
COLUMBIA       CLEAR     71  66  84 W3        30.16S
JEFFERSON CITY CLEAR     68  65  90 CALM      30.15S
ROLLA          CLEAR     67  62  84 CALM      30.16S HAZE
SEDALIA        CLEAR     68  62  81 CALM      30.17F
WHITEMAN AFB   CLEAR     66  63  92 S5        30.15F
WARRENSBURG    FOG       64  63  94 CALM      30.15F VSB 3/4
OSAGE BEACH    CLEAR     64  61  88 CALM      30.17S

$$
MOZ051-052-059>065-310900-
...EAST CENTRAL MISSOURI...

CITY           SKY/WX    TMP DP  RH WIND       PRES   REMARKS
ST LOUIS INTL  CLEAR     74  65  73 W3        30.13S
SPIRIT OF STL  CLEAR     66  66 100 W3        30.12S
ST CHARLES     CLEAR     69  67  93 SW5       30.11S

$$
MOZ072>076-082>087-097>100-106>115-310900-
...SOUTH CENTRAL AND SOUTHEAST MISSOURI...

CITY           SKY/WX    TMP DP  RH WIND       PRES   REMARKS
CAPE GIRARDEAU CLEAR     67  65  93 W5        30.09F
FARMINGTON     CLEAR     64  63  94 CALM      30.18S
POPLAR BLUFF   CLEAR     68  65  90 NW5       30.09F
WEST PLAINS    CLEAR     65  61  87 CALM      30.17F

$$



USA.gov is the U.S. government's official web portal to all federal, state and local government web resources and services.